FW4190 Weather Reports


Display with metric or nautical units.
time (UTC)temp
F
wind
direction
speed
MPH
gust
MPH
rain 1hr
in
rain 24hr
in
rain mn
in
humidity
%
barometer
mb
20260507113101 51 7.0 9.0 0.00 0.00 0.00 81 1020.1
20260507111541 51 8.0 10.0 0.00 0.00 0.00 83 1020.5
20260507110033 51 8.0 9.0 0.00 0.00 0.00 86 1020.7
20260507104538 50 7.0 8.0 0.00 0.00 0.00 89 1021.1
20260507103027 50 4.0 5.0 0.00 0.00 0.00 86 1021.3
20260507101554 50 4.0 5.0 0.00 0.00 0.00 86 1021.4
20260507100050 50 5.0 7.0 0.00 0.00 0.00 92 1021.5
20260507094547 49 6.0 8.0 0.00 0.00 0.00 92 1021.8
20260507093050 50 1.0 2.0 0.00 0.00 0.00 86 1021.9
20260507091552 50 1.0 6.0 0.00 0.00 0.00 74 1021.8
20260507090044 50 1.0 3.0 0.00 0.00 0.00 63 1021.9
20260507084513 49 2.0 4.0 0.00 0.00 0.00 66 1021.8
20260507083014 46 2.0 3.0 0.00 0.00 0.00 95 1021.9
20260507081549 47 0.0 0.0 0.00 0.00 0.00 97 1021.9
20260507080045 48 0.0 1.0 0.00 0.00 0.00 98 1022.0
20260507074543 48 2.0 5.0 0.00 0.00 0.00 97 1021.8
20260507073037 49 2.0 5.0 0.00 0.00 0.00 96 1021.7
20260507071535 49 1.0 5.0 0.00 0.00 0.00 95 1021.3
20260507070035 50 1.0 3.0 0.00 0.00 0.00 94 1020.9
20260507064534 51 2.0 4.0 0.00 0.00 0.00 95 1020.8
20260507063034 51 1.0 9.0 0.00 0.00 0.00 96 1020.5
20260507061530 51 9.0 11.0 0.00 0.00 0.00 97 1020.4
20260507060030 51 10.0 12.0 0.00 0.00 0.00 98 1020.1
20260507054527 51 6.0 10.0 0.00 0.00 0.00 98 1020.0
20260507053027 51 3.0 8.0 0.00 0.00 0.00 97 1019.8
20260507051526 52 2.0 6.0 0.00 0.00 0.00 96 1019.7
20260507050030 52 5.0 7.0 0.00 0.00 0.00 97 1019.4
20260507044609 52 2.0 7.0 0.00 0.00 0.00 98 1019.3
20260507043104 53 1.0 4.0 0.00 0.00 0.00 98 1019.1
20260507041555 53 0.0 1.0 0.00 0.00 0.00 97 1018.9
20260507040049 53 3.0 6.0 0.00 0.00 0.00 97 1018.9
20260507034553 54 0.0 3.0 0.00 0.00 0.00 96 1018.9
20260507033049 54 3.0 5.0 0.00 0.00 0.00 96 1018.9
20260507031549 54 0.0 2.0 0.00 0.00 0.00 96 1018.5
20260507030047 53 0.0 3.0 0.00 0.00 0.00 95 1018.5
20260507024551 54 1.0 4.0 0.00 0.00 0.00 93 1018.5
20260507023057 57 0.0 2.0 0.00 0.00 0.00 92 1018.4
20260507021543 58 0.0 3.0 0.00 0.00 0.00 91 1018.5
20260507020050 59 2.0 8.0 0.00 0.00 0.00 89 1018.4
20260507014541 58 3.0 8.0 0.00 0.00 0.00 91 1018.4
20260507013040 59 2.0 6.0 0.00 0.00 0.00 90 1018.6
20260507011546 59 1.0 4.0 0.00 0.00 0.00 89 1018.5
20260507010040 58 0.0 5.0 0.00 0.00 0.00 91 1018.7
20260507004539 59 4.0 7.0 0.00 0.00 0.00 89 1018.7
20260507003036 60 2.0 6.0 0.00 0.00 0.00 88 1018.9
20260507001604 60 2.0 5.0 0.00 0.00 0.00 86 1018.8
20260507000041 60 3.0 0.0 0.00 0.00 0.00 87 1018.8
20260506234504 60 3.0 8.0 0.00 0.00 0.00 88 1019.0
20260506233005 61 4.0 7.0 0.00 0.00 0.00 85 1019.4
20260506231502 60 3.0 7.0 0.00 0.00 0.00 87 1019.7
20260506230115 59 2.0 8.0 0.00 0.00 0.00 87 1019.6
20260506224559 60 4.0 10.0 0.00 0.00 0.00 86 1019.5
20260506223103 61 5.0 11.0 0.00 0.00 0.00 82 1019.8
20260506221612 61 4.0 8.0 0.00 0.00 0.00 81 1019.8
20260506220034 60 4.0 9.0 0.00 0.00 0.00 77 1019.8
20260506214527 60 2.0 8.0 0.00 0.00 0.00 79 1020.2
20260506213027 61 4.0 8.0 0.00 0.00 0.00 79 1020.6
20260506211523 60 2.0 6.0 0.00 0.00 0.00 79 1020.4
20260506210043 59 2.0 7.0 0.00 0.00 0.00 84 1020.6
20260506204520 59 3.0 6.0 0.00 0.00 0.00 82 1020.7
20260506203017 58 2.0 6.0 0.00 0.00 0.00 84 1020.9
20260506201520 58 0.0 4.0 0.00 0.00 0.00 86 1020.7
20260506200012 58 2.0 7.0 0.00 0.00 0.00 82 1020.8
20260506194511 59 2.0 5.0 0.00 0.00 0.00 80 1020.7
20260506193018 56 2.0 6.0 0.00 0.00 0.00 75 1020.7
20260506191511 54 3.0 7.0 0.00 0.00 0.00 80 1020.6
20260506190004 52 6.0 9.0 0.00 0.00 0.00 80 1020.8
20260506184504 52 8.0 13.0 0.00 0.00 0.00 81 1021.0
20260506183002 52 6.0 10.0 0.00 0.00 0.00 80 1021.1
20260506181604 53 5.0 7.0 0.00 0.00 0.00 65 1020.9
20260506181502 54 5.0 7.0 0.00 0.00 0.00 66 1020.8
20260506180058 55 2.0 7.0 0.00 0.00 0.00 64 1020.6
20260506174556 55 6.0 8.0 0.00 0.00 0.00 50 1020.3
20260506173024 56 2.0 8.0 0.00 0.00 0.00 41 1020.1
20260506171529 55 7.0 9.0 0.00 0.00 0.00 41 1020.1
20260506170026 57 0.0 6.0 0.00 0.00 0.00 32 1019.8
20260506164538 57 6.0 9.0 0.00 0.00 0.00 32 1019.7
20260506163014 0 0.0 0.0 0.00 0.00 0.00 1019.8
20260506161510 0 0.0 0.0 0.00 0.00 0.00 1019.6
20260506160003 0 1.0 8.0 0.00 0.01 0.00 35 1019.6
20260506154600 54 3.0 8.0 0.00 0.01 0.00 37 1019.5
20260506153055 50 2.0 7.0 0.00 0.01 0.00 65 1019.0
20260506151556 50 8.0 16.0 0.00 0.01 0.00 70 1018.7
20260506144551 46 14.0 17.0 0.00 0.02 0.00 98 1018.6
20260506143051 46 13.0 16.0 0.00 0.02 0.00 97 1018.5
20260506141550 47 10.0 13.0 0.00 0.02 0.00 97 1018.8
20260506140048 45 0.0 6.0 0.00 0.02 0.00 93 1018.5
20260506134546 47 10.0 13.0 0.00 0.02 0.00 96 1018.5
20260506133101 49 11.0 13.0 0.00 0.02 0.00 93 1018.6
20260506131547 50 3.0 6.0 0.00 0.02 0.00 72 1018.7
20260506130043 48 8.0 9.0 0.00 0.02 0.00 92 1018.8
20260506124542 49 6.0 8.0 0.00 0.02 0.00 92 1019.1
20260506123042 48 0.0 2.0 0.00 0.02 0.00 85 1018.6
20260506121542 49 3.0 7.0 0.00 0.02 0.00 89 1019.0
20260506120052 53 0.0 7.0 0.00 0.03 0.00 55 1019.0